Hourly Weather Bolshie Lipyagi

Today, 16 June, Wednesday

Time Temperature Precipitation Wind Pressure Humidity
00:00 +17°C° 0 mm 2 mps 744 mmHg 93%
01:00 +17°C° 0 mm 2 mps 744 mmHg 93%
02:00 +16°C° 0 mm 2 mps 744 mmHg 93%
03:00 +16°C° 0 mm 2 mps 744 mmHg 92%
04:00 +17°C° 0 mm 2 mps 744 mmHg 91%
05:00 +17°C° 0 mm 2 mps 744 mmHg 90%
06:00 +18°C° 0 mm 2 mps 744 mmHg 88%
07:00 +20°C° 0 mm 3 mps 744 mmHg 83%
08:00 +21°C° 0 mm 3 mps 744 mmHg 78%
09:00 +24°C° 0 mm 3 mps 745 mmHg 73%
10:00 +25°C° 0 mm 3 mps 745 mmHg 70%
11:00 +26°C° 0 mm 3 mps 745 mmHg 66%
12:00 +27°C° 0 mm 3 mps 745 mmHg 62%
13:00 +27°C° 0.2 mm 3 mps 745 mmHg 62%
14:00 +27°C° 0.2 mm 4 mps 746 mmHg 63%
15:00 +27°C° 0.2 mm 4 mps 746 mmHg 63%
16:00 +26°C° 0.7 mm 3 mps 746 mmHg 68%
17:00 +26°C° 0.7 mm 3 mps 746 mmHg 74%
18:00 +25°C° 0.7 mm 3 mps 746 mmHg 79%
19:00 +24°C° 0 mm 3 mps 747 mmHg 83%
20:00 +21°C° 0 mm 3 mps 747 mmHg 87%
21:00 +20°C° 0 mm 2 mps 747 mmHg 90%
22:00 +19°C° 0 mm 3 mps 748 mmHg 91%
23:00 +19°C° 0 mm 3 mps 748 mmHg 93%

Tomorrow, 17 June, Thursday

Time Temperature Precipitation Wind Pressure Humidity
00:00 +18°C° 0 mm 3 mps 748 mmHg 94%
01:00 +18°C° 0 mm 3 mps 749 mmHg 94%
02:00 +17°C° 0 mm 3 mps 749 mmHg 95%
03:00 +17°C° 0 mm 3 mps 749 mmHg 96%
04:00 +17°C° 0 mm 3 mps 750 mmHg 94%
05:00 +18°C° 0 mm 3 mps 750 mmHg 93%
06:00 +18°C° 0 mm 4 mps 750 mmHg 91%
07:00 +19°C° 0 mm 4 mps 751 mmHg 86%
08:00 +21°C° 0 mm 4 mps 751 mmHg 80%
09:00 +22°C° 0 mm 5 mps 751 mmHg 75%
10:00 +23°C° 0 mm 5 mps 752 mmHg 70%
11:00 +23°C° 0 mm 5 mps 752 mmHg 65%
12:00 +24°C° 0 mm 6 mps 752 mmHg 60%
13:00 +24°C° 0 mm 6 mps 752 mmHg 58%
14:00 +24°C° 0 mm 6 mps 753 mmHg 56%
15:00 +24°C° 0 mm 6 mps 753 mmHg 54%
16:00 +23°C° 0 mm 5 mps 753 mmHg 58%
17:00 +22°C° 0 mm 5 mps 753 mmHg 62%
18:00 +22°C° 0 mm 4 mps 754 mmHg 66%
19:00 +20°C° 0 mm 4 mps 754 mmHg 71%
20:00 +18°C° 0 mm 3 mps 754 mmHg 76%
21:00 +17°C° 0 mm 3 mps 755 mmHg 81%
22:00 +16°C° 0 mm 3 mps 755 mmHg 81%
23:00 +16°C° 0 mm 3 mps 755 mmHg 81%

Day after tomorrow, 18 June, Friday

Time Temperature Precipitation Wind Pressure Humidity
00:00 +14°C° 0 mm 4 mps 755 mmHg 81%
01:00 +13°C° 0 mm 3 mps 755 mmHg 82%
02:00 +13°C° 0 mm 3 mps 755 mmHg 83%
03:00 +12°C° 0 mm 3 mps 755 mmHg 84%
04:00 +13°C° 0 mm 3 mps 756 mmHg 83%
05:00 +14°C° 0 mm 3 mps 756 mmHg 82%
06:00 +14°C° 0 mm 3 mps 757 mmHg 81%
07:00 +17°C° 0 mm 3 mps 757 mmHg 75%
08:00 +18°C° 0 mm 4 mps 757 mmHg 69%
09:00 +20°C° 0 mm 4 mps 757 mmHg 63%
10:00 +21°C° 0 mm 5 mps 757 mmHg 59%
11:00 +22°C° 0 mm 5 mps 757 mmHg 56%
12:00 +23°C° 0 mm 5 mps 757 mmHg 52%
13:00 +23°C° 0 mm 5 mps 757 mmHg 52%
14:00 +23°C° 0 mm 5 mps 757 mmHg 52%
15:00 +23°C° 0 mm 5 mps 757 mmHg 52%
16:00 +23°C° 0 mm 4 mps 757 mmHg 56%
17:00 +22°C° 0 mm 4 mps 757 mmHg 61%
18:00 +22°C° 0 mm 4 mps 757 mmHg 65%
19:00 +20°C° 0 mm 4 mps 758 mmHg 70%
20:00 +19°C° 0 mm 3 mps 758 mmHg 75%
21:00 +17°C° 0 mm 3 mps 758 mmHg 79%
22:00 +16°C° 0 mm 3 mps 758 mmHg 81%
23:00 +16°C° 0 mm 3 mps 758 mmHg 82%

19 June, Saturday

Time Temperature Precipitation Wind Pressure Humidity
00:00 +14°C° 0 mm 3 mps 758 mmHg 83%
01:00 +15°C° 0 mm 2 mps 759 mmHg 85%
02:00 +14°C° 0 mm 2 mps 759 mmHg 87%
03:00 +14°C° 0 mm 1 mps 759 mmHg 89%
04:00 +15°C° 0 mm 1 mps 759 mmHg 86%
05:00 +16°C° 0 mm 1 mps 759 mmHg 83%
06:00 +18°C° 0 mm 1 mps 760 mmHg 81%
07:00 +19°C° 0 mm 1 mps 760 mmHg 75%
08:00 +21°C° 0 mm 1 mps 760 mmHg 70%
09:00 +23°C° 0 mm 1 mps 760 mmHg 65%
10:00 +23°C° 0 mm 1 mps 760 mmHg 61%
11:00 +24°C° 0 mm 1 mps 760 mmHg 58%
12:00 +25°C° 0 mm 1 mps 759 mmHg 54%
13:00 +26°C° 0 mm 1 mps 759 mmHg 53%
14:00 +26°C° 0 mm 1 mps 759 mmHg 52%
15:00 +27°C° 0 mm 1 mps 759 mmHg 51%
16:00 +24°C° 0 mm 0 mps 758 mmHg 53%
17:00 +24°C° 0 mm 0 mps 758 mmHg 55%
18:00 +24°C° 0 mm 0 mps 758 mmHg 57%
19:00 +22°C° 0 mm 0 mps 758 mmHg 63%
20:00 +20°C° 0 mm 0 mps 758 mmHg 68%
21:00 +18°C° 0 mm 0 mps 758 mmHg 74%
22:00 +18°C° 0 mm 0 mps 758 mmHg 76%
23:00 +17°C° 0 mm 0 mps 758 mmHg 79%

20 June, Sunday

Time Temperature Precipitation Wind Pressure Humidity
00:00 +19°C° 0 mm 1 mps 758 mmHg 81%
01:00 +18°C° 0 mm 1 mps 758 mmHg 82%
02:00 +16°C° 0 mm 0 mps 758 mmHg 83%
03:00 +16°C° 0 mm 0 mps 758 mmHg 85%
04:00 +18°C° 0 mm 1 mps 758 mmHg 83%
05:00 +19°C° 0 mm 1 mps 758 mmHg 82%
06:00 +20°C° 0 mm 1 mps 758 mmHg 81%
07:00 +22°C° 0 mm 1 mps 758 mmHg 76%
08:00 +23°C° 0 mm 2 mps 758 mmHg 71%
09:00 +25°C° 0 mm 2 mps 758 mmHg 66%
10:00 +26°C° 0 mm 2 mps 758 mmHg 63%
11:00 +27°C° 0 mm 2 mps 757 mmHg 60%
12:00 +28°C° 0 mm 2 mps 757 mmHg 56%
13:00 +28°C° 0 mm 2 mps 757 mmHg 55%
14:00 +28°C° 0 mm 2 mps 757 mmHg 54%
15:00 +29°C° 0 mm 2 mps 756 mmHg 53%
16:00 +29°C° 0 mm 2 mps 756 mmHg 57%
17:00 +28°C° 0 mm 2 mps 756 mmHg 61%
18:00 +28°C° 0 mm 1 mps 755 mmHg 64%
19:00 +27°C° 0 mm 1 mps 755 mmHg 69%
20:00 +25°C° 0 mm 1 mps 755 mmHg 73%
21:00 +23°C° 0 mm 1 mps 755 mmHg 78%
22:00 +22°C° 0 mm 1 mps 755 mmHg 80%
23:00 +22°C° 0 mm 1 mps 755 mmHg 82%

21 June, Monday

Time Temperature Precipitation Wind Pressure Humidity
00:00 +20°C° 0 mm 2 mps 755 mmHg 84%
01:00 +21°C° 0 mm 1 mps 755 mmHg 86%
02:00 +20°C° 0 mm 1 mps 755 mmHg 87%
03:00 +20°C° 0 mm 1 mps 755 mmHg 88%
04:00 +21°C° 0 mm 1 mps 755 mmHg 87%
05:00 +21°C° 0 mm 1 mps 755 mmHg 85%
06:00 +22°C° 0 mm 1 mps 755 mmHg 83%
07:00 +24°C° 0 mm 2 mps 755 mmHg 78%
08:00 +25°C° 0 mm 2 mps 755 mmHg 73%
09:00 +27°C° 0 mm 2 mps 755 mmHg 68%
10:00 +28°C° 0 mm 2 mps 755 mmHg 62%
11:00 +29°C° 0 mm 2 mps 755 mmHg 57%
12:00 +29°C° 0 mm 2 mps 754 mmHg 51%
13:00 +30°C° 0 mm 1 mps 754 mmHg 49%
14:00 +30°C° 0 mm 1 mps 754 mmHg 47%
15:00 +29°C° 0 mm 0 mps 754 mmHg 45%
16:00 +28°C° 0 mm 0 mps 753 mmHg 49%
17:00 +28°C° 0 mm 0 mps 753 mmHg 54%
18:00 +28°C° 0 mm 0 mps 753 mmHg 58%
19:00 +28°C° 0 mm 1 mps 753 mmHg 61%
20:00 +26°C° 0 mm 1 mps 753 mmHg 64%
21:00 +24°C° 0 mm 1 mps 753 mmHg 67%
22:00 +23°C° 0 mm 1 mps 752 mmHg 69%
23:00 +23°C° 0 mm 2 mps 752 mmHg 70%
Show more